DO8TBO-15 Weather Reports


Display with metric or nautical units.
time (UTC)temp
F
wind
direction
speed
MPH
gust
MPH
rain 1hr
in
rain 24hr
in
rain mn
in
humidity
%
barometer
mb
20260901212529 58 0.0 2.0 0.00 0.00 0.00 1021.3
20260901211525 57 0.0 0.0 0.00 0.00 0.00 1021.2
20260901210521 58 0.0 0.0 0.00 0.00 0.00 1021.1
20260901205517 58 0.0 0.0 0.00 0.00 0.00 1021.1
20260901204613 58 0.0 0.0 0.00 0.00 0.00 1021.2
20260901203609 59 0.0 0.0 0.00 0.00 0.00 1021.2
20260901202606 59 0.0 0.0 0.00 0.00 0.00 1021.1
20260901201602 60 0.0 0.0 0.00 0.00 0.00 1021.1
20260901200559 60 0.0 0.0 0.00 0.00 0.00 1021.0
20260901195554 61 0.0 0.0 0.00 0.00 0.00 1020.9
20260901194550 61 0.0 0.0 0.00 0.00 0.00 1020.9
20260901193546 62 0.0 0.0 0.00 0.00 0.00 1020.9
20260901192543 63 0.0 0.0 0.00 0.00 0.00 1020.9
20260901191539 64 0.0 0.0 0.00 0.00 0.00 1020.8
20260901190535 65 0.0 0.0 0.00 0.00 0.00 1020.7
20260901185531 67 0.0 0.0 0.00 0.00 0.00 1020.6
20260901184558 68 0.0 1.0 0.00 0.00 0.00 1020.6
20260901183555 68 0.0 2.0 0.00 0.00 0.00 1020.5
20260901182550 68 0.0 2.0 0.00 0.00 0.00 1020.4
20260901181546 69 0.0 2.0 0.00 0.01 0.00 1020.2
20260901180542 69 0.0 1.0 0.00 0.01 0.00 1020.1
20260901175539 70 0.0 0.0 0.00 0.01 0.00 1019.8
20260901174535 71 0.0 1.0 0.00 0.01 0.00 1019.7
20260901173531 71 0.0 0.0 0.00 0.01 0.00 1019.6
20260901172528 72 0.0 2.0 0.00 0.01 0.00 1019.5
20260901171524 75 270 0.0 4.0 0.00 0.01 0.00 1019.6
20260901170520 76 0.0 2.0 0.00 0.01 0.00 1019.5
20260901165516 77 0.0 2.0 0.00 0.01 0.00 1019.5
20260901164612 77 225 1.0 4.0 0.00 0.01 0.00 1019.4
20260901162605 76 282 1.0 5.0 0.00 0.01 0.00 1019.5
20260901161602 77 243 3.0 8.0 0.00 0.01 0.00 1019.5
20260901160558 77 225 2.0 4.0 0.00 0.01 0.00 1019.6
20260901155553 76 282 3.0 11.0 0.00 0.01 0.00 1019.7
20260901153546 78 295 4.0 9.0 0.00 0.01 0.00 1019.7
20260901152543 77 268 1.0 6.0 0.00 0.01 0.00 1019.8
20260901151538 77 316 4.0 11.0 0.00 0.01 0.00 1019.8
20260901150534 77 203 4.0 8.0 0.00 0.01 0.00 1019.8
20260901145530 77 265 5.0 11.0 0.00 0.01 0.00 1019.9
20260901144527 76 243 3.0 10.0 0.00 0.01 0.00 1019.9
20260901143523 77 221 3.0 8.0 0.00 0.01 0.00 1020.1
20260901142519 77 278 2.0 9.0 0.00 0.01 0.00 1020.3
20260901141515 78 238 2.0 8.0 0.00 0.01 0.00 1020.3
20260901140612 77 270 2.0 3.0 0.00 0.01 0.00 1020.4
20260901135609 76 225 1.0 4.0 0.00 0.01 0.00 1020.4
20260901134604 75 203 0.0 3.0 0.00 0.01 0.00 1020.4
20260901133600 78 153 1.0 5.0 0.00 0.01 0.00 1020.4
20260901132557 73 0.0 0.0 0.00 0.01 0.00 1020.5
20260901131554 74 0.0 2.0 0.00 0.01 0.00 1020.6
20260901130550 76 0.0 1.0 0.00 0.01 0.00 1020.5
20260901125546 76 317 2.0 8.0 0.00 0.01 0.00 1020.6
20260901124542 75 0.0 2.0 0.00 0.01 0.00 1020.7
20260901123538 76 45 0.0 3.0 0.00 0.01 0.00 1020.7
20260901122534 75 270 1.0 6.0 0.00 0.01 0.00 1020.8
20260901121532 76 223 2.0 8.0 0.00 0.01 0.00 1020.8
20260901120526 76 158 2.0 5.0 0.00 0.01 0.00 1020.7
20260901115523 76 226 2.0 8.0 0.00 0.01 0.00 1020.8
20260901114519 74 226 1.0 4.0 0.00 0.01 0.00 1020.9
20260901113516 73 102 0.0 6.0 0.00 0.01 0.00 1021.0
20260901112612 74 258 2.0 5.0 0.00 0.01 0.00 1020.9
20260901111608 74 230 3.0 6.0 0.00 0.01 0.00 1020.9
20260901110605 73 270 5.0 8.0 0.00 0.01 0.00 1021.0
20260901105601 71 317 2.0 7.0 0.00 0.01 0.00 1021.1
20260901104557 71 61 1.0 6.0 0.00 0.01 0.00 1021.0
20260901103553 71 324 1.0 6.0 0.00 0.01 0.00 1021.1
20260901102550 72 260 2.0 9.0 0.00 0.01 0.00 1021.3
20260901101545 71 176 2.0 11.0 0.00 0.01 0.00 1021.2
20260901100542 70 315 2.0 4.0 0.00 0.01 0.00 1021.3
20260901095538 71 245 0.0 3.0 0.00 0.01 0.00 1021.2
20260901094534 70 338 1.0 4.0 0.00 0.01 0.00 1021.3
20260901093530 70 258 2.0 5.0 0.00 0.01 0.00 1021.3
20260901092527 70 259 3.0 8.0 0.00 0.01 0.00 1021.3
20260901091523 69 252 3.0 8.0 0.00 0.01 0.00 1021.3
20260901090519 69 90 1.0 3.0 0.00 0.01 0.00 1021.3
20260901085615 69 248 2.0 8.0 0.00 0.01 0.00 1021.3
20260901084612 68 349 2.0 5.0 0.00 0.01 0.00 1021.3
20260901083608 68 315 0.0 4.0 0.00 0.01 0.00 1021.4
20260901082604 68 277 2.0 5.0 0.00 0.01 0.00 1021.2
20260901081600 67 0.0 2.0 0.00 0.01 0.00 1021.2
20260901080557 66 0.0 0.0 0.00 0.01 0.00 1021.2
20260901075553 67 0.0 2.0 0.00 0.01 0.00 1021.1
20260901074550 66 0.0 0.0 0.00 0.01 0.00 1021.1
20260901073546 65 180 0.0 2.0 0.00 0.01 0.00 1021.1
20260901072542 65 0.0 0.0 0.00 0.01 0.00 1020.9
20260901071539 65 0.0 0.0 0.00 0.01 0.00 1020.8
20260901070535 64 0.0 0.0 0.00 0.01 0.00 1020.9
20260901065531 63 0.0 0.0 0.00 0.01 0.00 1020.9
20260901064527 63 0.0 0.0 0.00 0.01 0.00 1020.9
20260901063523 63 0.0 2.0 0.00 0.01 0.00 1020.8
20260901062520 62 0.0 0.0 0.00 0.01 0.00 11 1020.9
20260901061516 61 0.0 0.0 0.00 0.01 0.00 15 1020.8
20260901060612 59 0.0 0.0 0.00 0.01 0.00 14 1020.8
20260901055609 59 0.0 0.0 0.00 0.01 0.00 15 1020.7
20260901054606 58 0.0 0.0 0.00 0.01 0.00 14 1020.6
20260901052558 58 0.0 0.0 0.00 0.01 0.00 14 1020.5
20260901051554 57 0.0 0.0 0.00 0.01 0.00 14 1020.4
20260901050550 57 0.0 0.0 0.00 0.01 0.00 10 1020.4
20260901045547 56 0.0 0.0 0.00 0.01 0.00 1020.4
20260901044543 56 0.0 0.0 0.00 0.01 0.00 1020.4
20260901043539 55 0.0 0.0 0.00 0.02 0.00 1020.3
20260901042536 55 0.0 0.0 0.00 0.04 0.00 1020.3
20260901041533 55 0.0 0.0 0.00 0.04 0.00 1020.2
20260901040528 55 0.0 0.0 0.00 0.04 0.00 1020.1
20260901035524 55 0.0 0.0 0.00 0.04 0.00 1020.0
20260901033518 56 0.0 0.0 0.00 0.04 0.00 1019.9
20260901032614 56 90 0.0 2.0 0.00 0.04 0.00 1019.9
20260901031610 57 90 0.0 2.0 0.00 0.04 0.00 1019.6
20260901030607 57 225 1.0 4.0 0.00 0.06 0.00 1019.6
20260901025602 57 225 0.0 5.0 0.00 0.07 0.00 1019.5
20260901024559 57 202 0.0 3.0 0.00 0.11 0.00 1019.5
20260901023555 58 269 1.0 4.0 0.00 0.12 0.00 1019.5
20260901022551 58 241 3.0 8.0 0.00 0.12 0.00 1019.4
20260901021547 57 248 1.0 5.0 0.00 0.12 0.00 1019.3
20260901020543 57 180 1.0 3.0 0.00 0.12 0.00 1019.4
20260901015540 57 0.0 2.0 0.00 0.12 0.00 1019.3
20260901014536 57 0.0 0.0 0.00 0.12 0.00 1019.2
20260901013531 57 0.0 3.0 0.00 0.12 0.00 1019.3
20260901012528 57 0.0 0.0 0.00 0.12 0.00 1019.3
20260901011524 57 0.0 0.0 0.00 0.12 0.00 1019.2
20260901010520 57 0.0 0.0 0.00 0.12 0.00 1019.2
20260901005517 57 0.0 0.0 0.00 0.12 0.00 1019.1
20260901004614 58 0.0 0.0 0.00 0.12 0.00 1019.1
20260901003609 58 0.0 0.0 0.00 0.12 0.00 1018.9
20260901002606 58 0.0 1.0 0.00 0.12 0.00 1018.9
20260901001602 59 0.0 0.0 0.00 0.12 0.00 1018.7
20260901000558 59 0.0 0.0 0.00 0.12 0.00 1018.7
20260831235554 59 193 1.0 3.0 0.00 0.12 0.00 1018.7
20260831234551 59 135 0.0 3.0 0.00 0.12 0.00 1018.7
20260831233546 59 230 1.0 4.0 0.00 0.12 0.00 1018.9
20260831232543 59 180 1.0 4.0 0.00 0.12 0.00 1018.8
20260831231539 59 208 2.0 5.0 0.00 0.12 0.00 1018.8
20260831230535 58 180 2.0 3.0 0.00 0.12 0.00 1018.8
20260831225531 58 243 1.0 3.0 0.00 0.12 0.00 1018.8
20260831224528 59 225 0.0 3.0 0.00 0.12 0.00 1018.7
20260831223524 59 173 1.0 3.0 0.00 0.12 0.00 1018.7
20260831222520 60 254 1.0 4.0 0.00 0.12 0.00 1018.6
20260831221518 60 237 2.0 5.0 0.00 0.12 0.00 1018.6
20260831220612 60 225 3.0 5.0 0.00 0.12 0.00 1018.7
20260831215609 61 225 2.0 5.0 0.00 0.12 0.12 1018.7
20260831214605 61 218 2.0 5.0 0.00 0.12 0.12 1018.6
20260831213602 61 203 1.0 4.0 0.00 0.12 0.12 1018.4
20260831212557 62 246 3.0 6.0 0.00 0.12 0.12 1018.4